EW0310 Weather Reports


time (UTC)temp
F
wind
direction
speed
knots
gust
knots
rain 1hr
in
rain 24hr
in
rain mn
in
humidity
%
barometer
mb
20260507164505 54 270 4.3 15.6 0.00 0.00 0.00 52 1011.6
20260507164004 54 286 5.2 12.2 0.00 0.00 0.00 52 1011.5
20260507163004 52 252 2.6 15.6 0.00 0.00 0.00 52 1011.5
20260507162005 53 302 1.7 6.1 0.00 0.00 0.00 55 1011.6
20260507161006 53 308 4.3 7.0 0.00 0.00 0.00 54 1011.6
20260507160503 53 315 5.2 10.4 0.00 0.00 0.00 56 1011.7
20260507160003 52 316 3.5 5.2 0.00 0.00 0.00 54 1011.7
20260507155503 51 292 1.7 8.7 0.00 0.00 0.00 54 1011.9
20260507155004 51 265 2.6 10.4 0.00 0.00 0.00 52 1011.9
20260507154004 52 319 5.2 10.4 0.00 0.01 0.00 52 1011.9
20260507153504 52 272 3.5 10.4 0.00 0.01 0.00 53 1012.0
20260507153004 53 311 2.6 8.7 0.00 0.01 0.00 52 1012.0
20260507152504 53 234 2.6 7.0 0.00 0.01 0.00 54 1012.1
20260507152004 52 320 5.2 14.8 0.00 0.01 0.00 54 1012.1
20260507151004 52 288 1.7 10.4 0.00 0.01 0.00 57 1012.2
20260507150504 51 293 2.6 11.3 0.00 0.01 0.00 55 1012.4
20260507145504 52 313 5.2 10.4 0.00 0.01 0.00 54 1012.6
20260507145003 52 304 5.2 10.4 0.00 0.01 0.00 55 1012.6
20260507144504 52 240 2.6 8.7 0.00 0.01 0.00 55 1012.6
20260507144003 52 301 4.3 10.4 0.00 0.01 0.00 53 1012.5
20260507143503 52 288 0.9 7.8 0.00 0.01 0.00 54 1012.7
20260507143003 51 269 2.6 7.0 0.00 0.01 0.00 58 1012.7
20260507142504 51 290 1.7 5.2 0.00 0.01 0.00 56 1012.9
20260507142003 50 286 1.7 7.0 0.00 0.01 0.00 58 1012.8
20260507141004 50 222 2.6 8.7 0.00 0.01 0.00 57 1013.0
20260507140503 50 313 4.3 10.4 0.00 0.01 0.00 55 1013.0
20260507140003 50 305 5.2 7.8 0.00 0.01 0.00 58 1013.2
20260507135504 49 266 1.7 7.0 0.00 0.01 0.00 58 1013.2
20260507135004 49 271 2.6 7.8 0.00 0.01 0.00 58 1013.3
20260507134503 49 312 4.3 8.7 0.00 0.01 0.00 59 1013.1
20260507134004 48 319 4.3 8.7 0.00 0.01 0.00 61 1013.2
20260507133504 48 305 1.7 7.0 0.00 0.01 0.00 64 1013.2
20260507133004 47 294 5.2 11.3 0.00 0.01 0.00 64 1013.1
20260507132504 47 344 2.6 7.0 0.00 0.01 0.00 65 1013.1
20260507132004 46 294 1.7 6.1 0.00 0.01 0.00 67 1013.0
20260507131503 46 310 0.9 2.6 0.00 0.01 0.00 68 1013.1
20260507131003 45 330 1.7 4.3 0.00 0.01 0.00 68 1013.1
20260507130504 45 291 1.7 5.2 0.00 0.01 0.00 70 1013.2
20260507130004 45 250 0.9 6.1 0.00 0.01 0.00 70 1013.2
20260507125503 44 281 0.9 2.6 0.00 0.02 0.00 72 1013.2
20260507125004 44 312 2.6 5.2 0.00 0.02 0.00 73 1013.3
20260507124504 44 303 1.7 4.3 0.00 0.03 0.00 73 1013.3
20260507124003 44 289 1.7 6.1 0.00 0.03 0.00 72 1013.3
20260507123504 43 287 1.7 2.6 0.00 0.03 0.00 71 1013.3
20260507123004 43 302 2.6 4.3 0.00 0.03 0.00 71 1013.3
20260507122504 43 308 2.6 5.2 0.00 0.03 0.00 69 1013.2
20260507122004 42 292 1.7 4.3 0.00 0.03 0.00 69 1013.1
20260507121503 42 278 1.7 2.6 0.00 0.03 0.00 72 1013.1
20260507120504 42 308 0.0 1.7 0.00 0.03 0.00 73 1013.2
20260507120004 41 304 0.9 2.6 0.00 0.03 0.00 73 1013.2
20260507115504 41 291 1.7 2.6 0.00 0.03 0.00 75 1013.3
20260507115004 41 294 1.7 2.6 0.00 0.03 0.00 76 1013.3
20260507114504 40 285 0.9 2.6 0.00 0.03 0.00 78 1013.2
20260507114004 40 305 0.9 4.3 0.00 0.03 0.00 77 1013.2
20260507113504 39 284 0.9 2.6 0.00 0.04 0.00 80 1013.1
20260507113005 39 291 0.9 2.6 0.00 0.05 0.00 83 1013.0
20260507112003 38 286 0.9 2.6 0.00 0.07 0.00 84 1012.6
20260507111504 38 297 0.9 4.3 0.00 0.09 0.00 84 1012.6
20260507111004 38 300 0.9 2.6 0.00 0.10 0.00 84 1012.7
20260507110503 38 300 0.9 2.6 0.00 0.12 0.00 84 1012.6
20260507110003 37 279 0.0 1.7 0.00 0.12 0.00 84 1012.6
20260507105504 37 285 0.9 2.6 0.00 0.13 0.00 85 1012.6
20260507104504 37 299 0.9 2.6 0.00 0.15 0.00 84 1012.5
20260507103504 37 313 0.0 2.6 0.00 0.16 0.00 84 1012.3
20260507103003 37 313 0.0 1.7 0.00 0.16 0.00 84 1012.2
20260507102503 37 313 0.0 0.9 0.00 0.16 0.00 84 1012.2
20260507102004 37 313 0.0 0.0 0.00 0.17 0.00 84 1012.2
20260507101503 37 313 0.0 0.0 0.00 0.17 0.00 84 1012.1
20260507101004 37 313 0.0 0.0 0.00 0.18 0.00 84 1012.2
20260507100503 38 313 0.0 1.7 0.00 0.18 0.00 83 1012.3
20260507100003 38 313 0.0 0.0 0.00 0.18 0.00 83 1012.2
20260507095503 38 313 0.0 0.0 0.00 0.18 0.00 83 1012.3
20260507095003 38 313 0.0 1.7 0.00 0.18 0.00 82 1012.3
20260507094504 38 313 0.9 2.6 0.00 0.18 0.00 81 1012.3
20260507094004 38 315 1.7 2.6 0.00 0.18 0.00 81 1012.3
20260507093003 39 306 0.9 2.6 0.00 0.19 0.00 82 1012.3
20260507092004 39 309 0.9 2.6 0.00 0.20 0.00 83 1012.3
20260507091504 39 307 1.7 2.6 0.00 0.20 0.00 83 1012.3
20260507090504 39 319 1.7 5.2 0.00 0.20 0.00 83 1012.2
20260507090005 39 308 1.7 4.3 0.00 0.20 0.00 82 1012.2
20260507085504 39 299 1.7 4.3 0.00 0.20 0.00 83 1012.2
20260507085004 39 304 1.7 4.3 0.00 0.20 0.00 82 1012.1
20260507084003 39 295 0.9 2.6 0.00 0.20 0.00 81 1012.3
20260507083503 40 308 1.7 2.6 0.00 0.20 0.00 80 1012.3
20260507083004 40 306 1.7 4.3 0.00 0.20 0.00 80 1012.3
20260507082503 40 307 0.9 4.3 0.00 0.20 0.00 80 1012.2
20260507082004 41 308 1.7 2.6 0.00 0.20 0.00 79 1012.3
20260507081504 41 315 0.9 2.6 0.00 0.20 0.00 78 1012.3
20260507081003 41 317 0.9 1.7 0.00 0.20 0.00 77 1012.4
20260507080004 42 315 0.9 2.6 0.00 0.20 0.00 77 1012.6
20260507075004 42 313 1.7 2.6 0.00 0.20 0.00 76 1012.5
20260507074503 42 304 0.9 2.6 0.00 0.20 0.00 76 1012.5
20260507074004 42 306 0.9 2.6 0.00 0.20 0.00 75 1012.5
20260507072504 42 317 0.9 2.6 0.00 0.20 0.00 77 1012.5
20260507072003 42 315 0.9 1.7 0.00 0.20 0.00 76 1012.4
20260507071504 42 315 0.9 2.6 0.00 0.20 0.00 74 1012.3
20260507071004 43 317 1.7 4.3 0.00 0.20 0.00 75 1012.4
20260507070503 43 325 0.9 2.6 0.00 0.20 0.00 74 1012.4
20260507070007 43 326 0.9 2.6 0.00 0.20 0.00 75 1012.4
20260507065003 43 321 1.7 4.3 0.00 0.20 0.00 74 1012.4
20260507064504 43 285 2.6 4.3 0.00 0.20 0.00 73 1012.3
20260507064003 43 305 1.7 5.2 0.00 0.20 0.00 73 1012.5
20260507063504 43 306 1.7 5.2 0.00 0.20 0.00 74 1012.6
20260507062503 43 325 1.7 4.3 0.00 0.20 0.00 73 1012.6
20260507062004 43 306 3.5 7.8 0.00 0.20 0.00 74 1012.8
20260507061003 43 319 1.7 2.6 0.00 0.20 0.00 73 1012.8
20260507060503 43 311 2.6 5.2 0.00 0.20 0.00 74 1012.8
20260507060004 43 307 2.6 6.1 0.00 0.20 0.00 73 1012.9
20260507055503 43 310 2.6 7.0 0.00 0.20 0.00 74 1012.9
20260507055004 43 305 2.6 8.7 0.00 0.20 0.00 75 1013.0
20260507054503 44 315 1.7 2.6 0.00 0.20 0.00 76 1012.9
20260507054004 44 310 2.6 6.1 0.00 0.20 0.00 76 1012.9
20260507053504 44 291 0.0 2.6 0.00 0.20 0.00 76 1012.9
20260507053005 44 292 1.7 5.2 0.00 0.20 0.00 75 1012.9
20260507052504 44 304 1.7 2.6 0.00 0.20 0.00 75 1013.0
20260507052004 44 340 2.6 5.2 0.00 0.20 0.00 77 1013.0
20260507051503 44 310 1.7 2.6 0.00 0.20 0.00 77 1013.1
20260507051004 44 321 2.6 5.2 0.00 0.20 0.00 79 1013.0
20260507050505 44 314 2.6 7.0 0.00 0.20 0.00 80 1012.9
20260507050005 44 301 1.7 4.3 0.00 0.20 0.00 82 1013.1
20260507045504 44 304 0.9 2.6 0.00 0.20 0.00 82 1013.3
20260507045004 44 302 1.7 2.6 0.00 0.20 0.00 81 1013.1
20260507044004 44 306 0.9 2.6 0.00 0.20 0.00 80 1013.2
20260507043504 44 302 0.9 2.6 0.00 0.20 0.00 81 1013.0
20260507043004 45 292 1.7 2.6 0.00 0.20 0.00 81 1013.0
20260507042503 45 319 0.0 1.7 0.00 0.20 0.00 81 1013.1
20260507042005 45 323 1.7 2.6 0.00 0.20 0.00 81 1013.0
20260507041004 45 320 1.7 2.6 0.00 0.20 0.00 79 1013.2
20260507040004 45 306 0.9 2.6 0.00 0.20 0.00 81 1013.2
20260507035504 45 306 0.9 2.6 0.00 0.20 0.20 80 1013.2
20260507035004 45 306 0.0 0.9 0.00 0.20 0.20 80 1013.4
20260507034504 45 307 0.9 2.6 0.00 0.20 0.20 80 1013.1
20260507033504 45 320 0.9 2.6 0.00 0.20 0.20 80 1012.7
20260507033003 45 326 0.9 4.3 0.00 0.20 0.20 79 1012.6
20260507032503 45 327 1.7 2.6 0.00 0.20 0.20 79 1012.7
20260507031504 45 330 0.9 2.6 0.00 0.20 0.20 80 1012.6
20260507031004 45 340 1.7 4.3 0.00 0.20 0.20 79 1012.7
20260507030503 46 342 2.6 7.8 0.00 0.20 0.20 79 1012.8
20260507025503 46 338 1.7 4.3 0.00 0.20 0.20 80 1012.9
20260507025003 46 319 2.6 7.0 0.00 0.20 0.20 81 1013.0
20260507024504 46 316 3.5 7.0 0.00 0.20 0.20 81 1012.7
20260507024004 46 316 1.7 5.2 0.00 0.20 0.20 81 1012.7
20260507023503 46 323 2.6 6.1 0.00 0.20 0.20 82 1012.4
20260507023004 46 326 2.6 7.8 0.00 0.20 0.20 83 1012.4
20260507022005 46 297 2.6 10.4 0.00 0.20 0.20 85 1012.0
20260507021504 46 324 3.5 7.0 0.00 0.20 0.20 86 1012.0
20260507021005 46 319 2.6 10.4 0.00 0.20 0.20 85 1012.0
20260507020504 46 292 2.6 8.7 0.00 0.20 0.20 86 1012.0
20260507020004 47 323 3.5 10.4 0.00 0.20 0.20 86 1011.9
20260507015504 47 332 3.5 10.4 0.00 0.20 0.20 86 1011.8
20260507015004 47 327 2.6 10.4 0.00 0.20 0.20 86 1012.1
20260507014504 47 326 2.6 7.0 0.00 0.20 0.20 86 1011.9
20260507014004 47 328 4.3 8.7 0.00 0.20 0.20 87 1011.9
20260507013004 47 329 2.6 8.7 0.00 0.20 0.20 87 1012.5
20260507012004 47 302 3.5 10.4 0.00 0.20 0.20 88 1012.5
20260507011505 47 312 2.6 7.0 0.00 0.20 0.20 89 1012.5
20260507011004 47 319 2.6 8.7 0.00 0.20 0.20 89 1012.4
20260507010504 47 306 4.3 10.4 0.00 0.20 0.20 89 1012.3
20260507010004 47 294 2.6 7.0 0.00 0.20 0.20 90 1012.3
20260507005505 47 287 2.6 7.8 0.00 0.20 0.20 90 1012.4
20260507005008 48 330 2.6 5.2 0.00 0.20 0.20 90 1012.6
20260507004506 48 307 2.6 4.3 0.00 0.20 0.20 90 1012.7
20260507004004 48 296 1.7 2.6 0.00 0.20 0.20 90 1012.7
20260507003504 48 296 0.9 2.6 0.00 0.20 0.20 90 1012.7
20260507001004 48 302 0.0 2.6 0.00 0.20 0.20 89 1012.3
20260507000004 48 285 1.7 5.2 0.00 0.20 0.20 90 1012.2
20260506235004 48 291 1.7 4.3 0.00 0.20 0.20 89 1011.8
20260506234504 48 271 0.9 4.3 0.00 0.20 0.20 89 1011.7
20260506234005 48 297 1.7 6.1 0.00 0.20 0.20 89 1011.7
20260506233004 48 307 1.7 6.1 0.00 0.20 0.20 89 1011.6
20260506232504 48 298 2.6 7.8 0.00 0.20 0.20 89 1011.5
20260506232004 48 298 2.6 7.0 0.00 0.20 0.20 89 1011.3
20260506231504 48 336 2.6 5.2 0.00 0.20 0.20 89 1011.3
20260506231005 48 314 1.7 2.6 0.00 0.20 0.20 89 1011.3
20260506230004 48 325 1.7 2.6 0.00 0.20 0.20 89 1011.3
20260506225503 48 300 3.5 7.0 0.00 0.20 0.20 89 1011.3
20260506225004 48 307 2.6 7.8 0.00 0.20 0.20 90 1011.3
20260506224504 48 306 2.6 6.1 0.00 0.20 0.20 90 1011.3
20260506224004 48 296 5.2 10.4 0.00 0.20 0.20 90 1011.2
20260506223505 48 330 3.5 12.2 0.00 0.20 0.20 91 1011.2
20260506223003 48 315 2.6 13.9 0.00 0.20 0.20 91 1011.2
20260506222504 49 308 4.3 12.2 0.00 0.20 0.20 92 1011.1
20260506222003 49 292 3.5 10.4 0.00 0.20 0.20 92 1011.1
20260506221504 49 312 2.6 8.7 0.00 0.20 0.20 92 1011.0
20260506221004 49 270 2.6 7.8 0.00 0.20 0.20 92 1011.1
20260506220504 49 305 5.2 10.4 0.00 0.20 0.20 92 1011.0
20260506220004 49 272 5.2 11.3 0.00 0.20 0.20 92 1010.9
20260506214504 49 301 3.5 8.7 0.00 0.20 0.20 93 1010.6
20260506214003 49 292 4.3 10.4 0.00 0.20 0.20 93 1010.7
20260506212503 49 290 3.5 8.7 0.00 0.20 0.20 93 1010.3
20260506212004 49 301 1.7 8.7 0.00 0.20 0.20 93 1010.1
20260506211503 49 292 0.9 7.8 0.00 0.20 0.20 93 1010.1
20260506210504 49 251 2.6 7.0 0.00 0.20 0.20 93 1010.2
20260506210004 49 283 4.3 8.7 0.00 0.20 0.20 93 1010.2
20260506205504 49 313 0.9 5.2 0.00 0.20 0.20 93 1010.0
20260506204503 49 277 2.6 10.4 0.00 0.20 0.20 93 1009.9
20260506204004 49 276 5.2 11.3 0.00 0.20 0.20 93 1009.9
20260506203504 49 320 1.7 6.1 0.00 0.20 0.20 93 1009.8
20260506203004 49 260 1.7 7.0 0.00 0.20 0.20 93 1009.8
20260506202504 49 310 2.6 7.8 0.00 0.20 0.20 93 1009.8
20260506202004 49 329 1.7 10.4 0.00 0.20 0.20 93 1009.8
20260506201504 49 302 2.6 10.4 0.00 0.20 0.20 93 1009.8
20260506201003 49 308 4.3 8.7 0.00 0.20 0.20 93 1010.1
20260506200004 49 299 1.7 7.8 0.00 0.20 0.20 93 1010.0
20260506195003 49 309 0.9 7.8 0.00 0.20 0.20 93 1009.9
20260506194505 49 260 4.3 12.2 0.00 0.20 0.20 93 1009.9
20260506194004 49 272 4.3 8.7 0.00 0.20 0.20 93 1009.9
20260506193503 50 298 4.3 8.7 0.00 0.20 0.20 93 1009.8
20260506193004 50 297 2.6 10.4 0.00 0.20 0.20 93 1009.8
20260506192504 50 264 2.6 7.8 0.00 0.20 0.20 93 1009.8
20260506192004 50 283 3.5 7.8 0.00 0.20 0.20 93 1009.8
20260506191503 50 310 1.7 10.4 0.00 0.20 0.20 93 1009.7
20260506191004 50 298 5.2 11.3 0.00 0.20 0.20 93 1009.6
20260506190003 50 305 2.6 10.4 0.00 0.20 0.20 93 1009.4
20260506185504 50 305 3.5 8.7 0.00 0.20 0.20 93 1009.5
20260506185003 50 273 1.7 10.4 0.00 0.20 0.20 93 1009.6
20260506184503 51 301 4.3 11.3 0.00 0.20 0.20 93 1009.6
20260506184003 51 292 2.6 12.2 0.00 0.20 0.20 93 1009.5
20260506183504 51 305 5.2 11.3 0.00 0.20 0.20 93 1009.5
20260506183004 51 276 4.3 8.7 0.00 0.20 0.20 93 1009.4
20260506182004 52 305 2.6 10.4 0.00 0.20 0.20 92 1009.2
20260506181504 52 306 2.6 10.4 0.00 0.20 0.20 93 1009.2
20260506181004 52 310 5.2 12.2 0.00 0.20 0.20 93 1009.0
20260506180504 53 309 1.7 8.7 0.00 0.20 0.20 93 1008.9
20260506180005 53 276 2.6 7.8 0.00 0.20 0.20 92 1009.0
20260506175003 53 283 4.3 12.2 0.00 0.20 0.20 93 1008.9
20260506174504 54 282 5.2 10.4 0.00 0.20 0.20 92 1008.9
20260506174004 54 291 2.6 10.4 0.00 0.20 0.20 93 1008.9
20260506173504 54 295 1.7 7.8 0.00 0.20 0.20 93 1008.8
20260506172503 54 283 2.6 7.8 0.00 0.20 0.20 93 1008.7
20260506172003 54 266 3.5 11.3 0.00 0.20 0.20 93 1008.7
20260506171504 54 270 1.7 8.7 0.00 0.20 0.20 93 1008.6
20260506171003 54 271 4.3 10.4 0.00 0.20 0.20 93 1008.6
20260506170004 54 297 5.2 10.4 0.00 0.20 0.20 93 1008.5
20260506165504 54 257 2.6 10.4 0.00 0.20 0.20 92 1008.5
20260506165004 54 271 1.7 8.7 0.00 0.20 0.20 92 1008.5